Location: Moena
(46.3667°N, 11.6500°E)
Time: 04:32:58
(UTC+00:00)

Cosmos 2333 Rocket - Pass Details

Date: 16 June 2021
Orbit: 841 x 861 km, 70.8° (Epoch: 27 July)

Event Time Altitude Azimuth Distance (km) Brightness Sun altitude
Exits shadow 22:50:56 - 241° (WSW) 3,142 4.9 -20.1°
Reaches altitude 10° 22:52:53 10° 250° (WSW) 2,492 4.5 -20.1°
Maximum altitude 22:57:52 30° 310° (NW) 1,498 3.9 -20.2°
Drops below altitude 10° 23:02:51 10° 11° (N) 2,493 5.8 -20.2°
Sets 23:05:38 0° 22° (NNE) 3,429 6.5 -20.2°
